User: anonymous
Location: Caltech
(34.1382°N, 118.1253°W)
Time: 22:21:07
(UTC-07:00)
Language:

Cosmos 1833 Rocket - Orbit

View from above orbital plane
View from above orbital plane
View from above satellite
View from above satellite

Ground track
Ground track

The orbit data is extracted from the following two-line orbital elements,

1 17590U 87027B   14292.71933945 -.00000034  00000-0  68552-5 0  8094
2 17590 071.0055 035.5290 0006462 324.7145 035.3550 14.16654606426530
Epoch (UTC): 19 October 2014 17:15:50
Eccentricity: 0.0006462
inclination: 71.0055°
perigee height: 832 km
apogee height: 841 km
right ascension of ascending node: 35.5290°
argument of perigee: 324.7145°
revolutions per day: 14.16654606
mean anomaly at epoch: 35.3550°
orbit number at epoch: 42653

The dashed part of the orbit path shows where the satellite is in the earth's shadow,  

DLR